Weather History for Lee's Summit, MO

Change the Weather History Date:

Saturday, November 17, 2012

  Actual Average (KMKC) Record (KMKC)
Temperature  
Mean Temperature 49 °F -  
Max Temperature 59 °F 52 °F 75 °F (1999)
Min Temperature 39 °F 35 °F 18 °F (2000)
Degree Days  
Heating Degree Days 16    
Moisture  
Dew Point 31 °F    
Average Humidity 54    
Maximum Humidity 76    
Minimum Humidity 33    
Precipitation  
Precipitation 0.00 in - - ()
Sea Level Pressure  
Sea Level Pressure 30.36 in    
Wind  
Wind Speed 7 mph (SSE)    
Max Wind Speed 13 mph    
Max Gust Speed 21 mph    
Visibility 10 miles    
Events      
Averages and records for this station are not official NWS values.
T = Trace of Precipitation, MM = Missing Value Source: NWS Daily Summary

Daily Weather History Graph

Daily Weather History Graph

Search for Another Location

Airport:

Trip Planner

Search our weather history database for the weather conditions in past years. The results will help you decide how hot, cold, wet, or windy it might be!

Date:

Astronomy

Nov. 17, 2012 Rise Set
Actual Time 7:03 AM CST 5:01 PM CST
Civil Twilight 6:34 AM CST 5:30 PM CST
Nautical Twilight 6:01 AM CST 6:02 PM CST
Astronomical Twilight 5:30 AM CST 6:34 PM CST
Moon 10:48 AM CST (11/17) 9:12 PM CST (11/17)
Length of Visible Light 10h 56m
Length of Day
9h 58m
Waxing Crescent, 20% of the Moon is Illuminated
Nov 17
Waxing Crescent
Nov 20
First Quarter
Nov 28
Full
Dec 6
Last Quarter
Dec 13
New

Hourly Weather History & Observations

Time (CST) Temp. Windchill Dew Point Humidity Pressure Visibility Wind Dir Wind Speed Gust Speed Precip Events Conditions
12:53 AM 43.0 °F 39.5 °F 34.0 °F 71% 30.39 in 10.0 mi SSE 5.8 mph - N/A   Clear
1:53 AM 43.0 °F 38.8 °F 33.1 °F 68% 30.38 in 10.0 mi SE 6.9 mph - N/A   Clear
2:53 AM 44.1 °F 41.5 °F 32.0 °F 63% 30.38 in 10.0 mi South 4.6 mph - N/A   Clear
3:53 AM 42.1 °F 37.7 °F 33.1 °F 70% 30.38 in 10.0 mi SSE 6.9 mph - N/A   Clear
4:53 AM 41.0 °F 36.4 °F 33.1 °F 73% 30.39 in 10.0 mi SSE 6.9 mph - N/A   Clear
5:53 AM 39.0 °F 34.0 °F 32.0 °F 76% 30.39 in 10.0 mi SSE 6.9 mph - N/A   Clear
6:53 AM 39.9 °F 34.5 °F 30.9 °F 70% 30.40 in 10.0 mi SSE 8.1 mph - N/A   Clear
7:53 AM 41.0 °F 35.8 °F 30.9 °F 67% 30.41 in 10.0 mi SSE 8.1 mph - N/A   Clear
8:53 AM 43.0 °F 37.7 °F 30.9 °F 62% 30.42 in 10.0 mi South 9.2 mph 16.1 mph N/A   Clear
9:53 AM 48.9 °F - 33.1 °F 54% 30.42 in 10.0 mi South 6.9 mph - N/A   Clear
10:53 AM 54.0 °F - 34.0 °F 47% 30.41 in 10.0 mi South 10.4 mph - N/A   Clear
11:53 AM 57.0 °F - 30.9 °F 37% 30.38 in 10.0 mi South 10.4 mph 20.7 mph N/A   Clear
1:53 PM 59.0 °F - 30.9 °F 35% 30.34 in 10.0 mi South 10.4 mph - N/A   Clear
2:53 PM 59.0 °F - 30.0 °F 33% 30.32 in 10.0 mi South 12.7 mph 17.3 mph N/A   Clear
3:53 PM 57.9 °F - 30.0 °F 35% 30.31 in 10.0 mi SSE 8.1 mph - N/A   Clear
4:53 PM 55.0 °F - 28.0 °F 35% 30.31 in 10.0 mi SSE 6.9 mph - N/A   Clear
5:53 PM 52.0 °F - 28.9 °F 41% 30.30 in 10.0 mi SE 4.6 mph - N/A   Clear
6:53 PM 51.1 °F - 30.0 °F 44% 30.31 in 10.0 mi ESE 4.6 mph - N/A   Clear
7:53 PM 50.0 °F - 30.9 °F 48% 30.31 in 10.0 mi SSE 4.6 mph - N/A   Clear
8:53 PM 48.9 °F - 30.9 °F 50% 30.31 in 10.0 mi SSE 4.6 mph - N/A   Clear
9:53 PM 48.0 °F - 30.9 °F 52% 30.31 in 10.0 mi South 6.9 mph - N/A   Clear
10:53 PM 46.9 °F - 30.0 °F 52% 30.30 in 10.0 mi SSE 8.1 mph - N/A   Clear
11:53 PM 46.9 °F - 28.9 °F 50% 30.30 in 10.0 mi South 10.4 mph - N/A   Clear